Time,TemperatureF,DewpointF,PressureIn,WindDirection,WindDirectionDegrees,WindSpeedMPH,WindSpeedGustMPH,Humidity,HourlyPrecipIn,Conditions,Clouds,dailyrainin,SoftwareType,DateUTC
2013-05-29 00:01:00,46.2,38.8,29.61,WSW,256,0.0,0.0,75,0.00,,---,0.00,VWS V14.01,2013-05-29 06:01:00,
2013-05-29 00:06:00,46.2,38.8,29.61,WSW,256,0.0,0.0,75,0.00,,---,0.00,VWS V14.01,2013-05-29 06:06:00,
2013-05-29 00:11:00,46.2,39.1,29.61,WSW,257,0.0,0.0,76,0.00,,---,0.00,VWS V14.01,2013-05-29 06:11:00,
2013-05-29 00:16:00,46.4,39.3,29.61,WSW,252,0.0,0.0,76,0.00,,---,0.00,VWS V14.01,2013-05-29 06:16:00,
2013-05-29 00:21:00,46.2,39.4,29.61,WSW,249,3.1,3.1,77,0.00,,---,0.00,VWS V14.01,2013-05-29 06:21:00,
2013-05-29 00:26:00,46.2,39.4,29.61,WSW,249,2.7,2.7,77,0.00,,---,0.00,VWS V14.01,2013-05-29 06:26:00,
2013-05-29 00:31:00,46.4,39.3,29.61,WSW,249,3.1,3.1,76,0.00,,---,0.00,VWS V14.01,2013-05-29 06:31:00,
2013-05-29 00:36:00,46.4,39.3,29.61,West,272,4.9,5.4,76,0.00,,---,0.00,VWS V14.01,2013-05-29 06:36:00,
2013-05-29 00:41:00,46.4,39.3,29.61,West,264,3.6,3.6,76,0.00,,---,0.00,VWS V14.01,2013-05-29 06:41:00,
2013-05-29 00:46:00,46.2,39.1,29.61,West,266,0.0,0.0,76,0.00,,---,0.00,VWS V14.01,2013-05-29 06:46:00,
2013-05-29 00:51:00,46.2,39.4,29.61,NW,304,3.6,3.6,77,0.00,,---,0.00,VWS V14.01,2013-05-29 06:51:00,
2013-05-29 00:56:00,46.2,39.8,29.58,NNW,329,3.1,3.1,78,0.00,,---,0.00,VWS V14.01,2013-05-29 06:56:00,
2013-05-29 01:01:00,46.0,39.9,29.58,NW,321,5.8,5.8,79,0.00,,---,0.00,VWS V14.01,2013-05-29 07:01:00,
2013-05-29 01:06:00,46.0,39.9,29.58,WNW,301,3.1,4.9,79,0.00,,---,0.00,VWS V14.01,2013-05-29 07:06:00,
2013-05-29 01:11:00,46.2,40.1,29.58,NW,313,2.2,2.2,79,0.00,,---,0.00,VWS V14.01,2013-05-29 07:11:00,
2013-05-29 01:16:00,46.0,39.6,29.58,NW,313,0.0,0.0,78,0.00,,---,0.00,VWS V14.01,2013-05-29 07:16:00,
2013-05-29 01:21:00,46.0,39.6,29.58,WSW,257,0.0,0.0,78,0.00,,---,0.00,VWS V14.01,2013-05-29 07:21:00,
2013-05-29 01:25:00,46.0,39.6,29.61,SW,232,0.0,0.0,78,0.00,,---,0.00,VWS V14.01,2013-05-29 07:25:00,
2013-05-29 01:30:00,45.9,40.0,29.61,SSW,203,0.0,0.0,80,0.00,,---,0.00,VWS V14.01,2013-05-29 07:30:00,
2013-05-29 01:35:00,45.7,40.2,29.61,SSW,204,0.0,0.0,81,0.00,,---,0.00,VWS V14.01,2013-05-29 07:35:00,
2013-05-29 01:40:00,45.7,40.2,29.58,SSW,199,0.0,0.0,81,0.00,,---,0.00,VWS V14.01,2013-05-29 07:40:00,
2013-05-29 01:45:00,45.5,40.3,29.58,SW,226,0.0,0.0,82,0.00,,---,0.00,VWS V14.01,2013-05-29 07:45:00,
2013-05-29 01:50:00,45.3,39.8,29.58,SW,226,0.0,0.0,81,0.00,,---,0.00,VWS V14.01,2013-05-29 07:50:00,
2013-05-29 01:55:00,45.1,39.7,29.58,WNW,291,0.0,0.0,81,0.00,,---,0.00,VWS V14.01,2013-05-29 07:55:00,
2013-05-29 02:00:00,45.0,39.5,29.58,WNW,291,0.0,0.0,81,0.00,,---,0.00,VWS V14.01,2013-05-29 08:00:00,
2013-05-29 02:05:00,44.8,39.3,29.58,WNW,291,0.0,0.0,81,0.00,,---,0.00,VWS V14.01,2013-05-29 08:05:00,
2013-05-29 02:10:00,44.8,39.6,29.58,WNW,291,0.0,0.0,82,0.00,,---,0.00,VWS V14.01,2013-05-29 08:10:00,
2013-05-29 02:15:00,44.8,39.6,29.58,WSW,252,0.0,0.0,82,0.00,,---,0.00,VWS V14.01,2013-05-29 08:15:00,
2013-05-29 02:20:00,44.6,39.5,29.58,SW,232,3.6,3.6,82,0.00,,---,0.00,VWS V14.01,2013-05-29 08:20:00,
2013-05-29 02:25:00,44.6,39.5,29.58,SW,230,0.0,0.0,82,0.00,,---,0.00,VWS V14.01,2013-05-29 08:25:00,
2013-05-29 02:30:00,44.6,39.1,29.58,SW,230,0.0,0.0,81,0.00,,---,0.00,VWS V14.01,2013-05-29 08:30:00,
2013-05-29 02:35:00,44.8,39.3,29.58,West,265,2.7,2.7,81,0.00,,---,0.00,VWS V14.01,2013-05-29 08:35:00,
2013-05-29 02:40:00,44.6,39.1,29.58,NW,308,4.0,5.8,81,0.00,,---,0.00,VWS V14.01,2013-05-29 08:40:00,
2013-05-29 02:45:00,44.6,38.8,29.58,NW,304,2.2,2.2,80,0.00,,---,0.00,VWS V14.01,2013-05-29 08:45:00,
2013-05-29 02:50:00,44.8,38.7,29.58,WNW,288,2.7,2.7,79,0.00,,---,0.00,VWS V14.01,2013-05-29 08:50:00,
2013-05-29 02:55:00,44.6,38.2,29.58,WNW,300,3.6,3.6,78,0.00,,---,0.00,VWS V14.01,2013-05-29 08:55:00,
2013-05-29 03:00:00,44.8,38.0,29.58,WNW,295,3.1,4.0,77,0.00,,---,0.00,VWS V14.01,2013-05-29 09:00:00,
2013-05-29 03:05:00,44.8,38.0,29.58,NW,319,2.7,2.7,77,0.00,,---,0.00,VWS V14.01,2013-05-29 09:05:00,
2013-05-29 03:10:00,44.6,37.8,29.58,West,259,3.1,3.1,77,0.00,,---,0.00,VWS V14.01,2013-05-29 09:10:00,
2013-05-29 03:15:00,44.4,37.7,29.58,WSW,254,0.0,0.0,77,0.00,,---,0.00,VWS V14.01,2013-05-29 09:15:00,
2013-05-29 03:20:00,44.1,37.3,29.58,WSW,240,2.2,2.7,77,0.00,,---,0.00,VWS V14.01,2013-05-29 09:20:00,
2013-05-29 03:25:00,43.7,37.0,29.58,SW,225,4.0,4.0,77,0.00,,---,0.00,VWS V14.01,2013-05-29 09:25:00,
2013-05-29 03:30:00,43.5,37.1,29.58,WSW,242,3.1,3.1,78,0.00,,---,0.00,VWS V14.01,2013-05-29 09:30:00,
2013-05-29 03:35:00,43.3,37.3,29.58,WSW,256,2.2,2.7,79,0.00,,---,0.00,VWS V14.01,2013-05-29 09:35:00,
2013-05-29 03:40:00,43.2,37.1,29.58,WSW,256,0.0,0.0,79,0.00,,---,0.00,VWS V14.01,2013-05-29 09:40:00,
2013-05-29 03:45:00,43.0,36.9,29.58,WSW,256,0.0,0.0,79,0.00,,---,0.00,VWS V14.01,2013-05-29 09:45:00,
2013-05-29 03:50:00,43.0,37.6,29.58,WSW,251,3.6,3.6,81,0.00,,---,0.00,VWS V14.01,2013-05-29 09:50:00,
2013-05-29 03:55:00,42.8,37.7,29.55,East,99,2.7,2.7,82,0.00,,---,0.00,VWS V14.01,2013-05-29 09:55:00,
2013-05-29 04:00:00,43.0,38.5,29.55,East,99,0.0,0.0,84,0.00,,---,0.00,VWS V14.01,2013-05-29 10:00:00,
2013-05-29 04:05:00,43.0,38.5,29.55,ESE,121,0.0,0.0,84,0.00,,---,0.00,VWS V14.01,2013-05-29 10:05:00,
2013-05-29 04:10:00,43.2,38.4,29.55,ESE,121,0.0,0.0,83,0.00,,---,0.00,VWS V14.01,2013-05-29 10:10:00,
2013-05-29 04:15:00,43.0,37.9,29.55,ESE,121,0.0,0.0,82,0.00,,---,0.00,VWS V14.01,2013-05-29 10:15:00,
2013-05-29 04:20:00,42.6,37.5,29.55,ESE,121,0.0,0.0,82,0.00,,---,0.00,VWS V14.01,2013-05-29 10:20:00,
2013-05-29 04:25:00,42.6,37.5,29.55,ESE,121,0.0,0.0,82,0.00,,---,0.00,VWS V14.01,2013-05-29 10:25:00,
2013-05-29 04:30:00,42.3,37.5,29.55,ESE,121,0.0,0.0,83,0.00,,---,0.00,VWS V14.01,2013-05-29 10:30:00,
2013-05-29 04:35:00,42.1,37.6,29.55,ESE,121,0.0,0.0,84,0.00,,---,0.00,VWS V14.01,2013-05-29 10:35:00,
2013-05-29 04:40:00,41.9,37.7,29.55,ESE,121,0.0,0.0,85,0.00,,---,0.00,VWS V14.01,2013-05-29 10:40:00,
2013-05-29 04:45:00,41.7,37.8,29.55,ESE,121,0.0,0.0,86,0.00,,---,0.00,VWS V14.01,2013-05-29 10:45:00,
2013-05-29 04:50:00,41.5,38.0,29.55,ESE,121,0.0,0.0,87,0.00,,---,0.00,VWS V14.01,2013-05-29 10:50:00,
2013-05-29 04:55:00,41.4,37.8,29.55,ESE,121,0.0,0.0,87,0.00,,---,0.00,VWS V14.01,2013-05-29 10:55:00,
2013-05-29 05:00:00,41.5,38.5,29.55,ESE,121,0.0,0.0,89,0.00,,---,0.00,VWS V14.01,2013-05-29 11:00:00,
2013-05-29 05:05:00,41.4,38.7,29.55,ESE,121,0.0,0.0,90,0.00,,---,0.00,VWS V14.01,2013-05-29 11:05:00,
2013-05-29 05:10:00,41.0,38.0,29.55,ESE,121,0.0,0.0,89,0.00,,---,0.00,VWS V14.01,2013-05-29 11:10:00,
2013-05-29 05:15:00,41.4,39.2,29.55,ESE,121,0.0,0.0,92,0.00,,---,0.00,VWS V14.01,2013-05-29 11:15:00,
2013-05-29 05:20:00,41.5,39.4,29.55,ESE,121,0.0,0.0,92,0.00,,---,0.00,VWS V14.01,2013-05-29 11:20:00,
2013-05-29 05:25:00,41.4,38.9,29.55,ESE,121,0.0,0.0,91,0.00,,---,0.00,VWS V14.01,2013-05-29 11:25:00,
2013-05-29 05:30:00,41.2,38.8,29.55,ESE,121,0.0,0.0,91,0.00,,---,0.00,VWS V14.01,2013-05-29 11:30:00,
2013-05-29 05:35:00,41.0,38.6,29.55,ESE,121,0.0,0.0,91,0.00,,---,0.00,VWS V14.01,2013-05-29 11:35:00,
2013-05-29 05:40:00,41.0,38.6,29.55,ESE,121,0.0,0.0,91,0.00,,---,0.00,VWS V14.01,2013-05-29 11:40:00,
2013-05-29 05:45:00,41.0,38.6,29.55,ESE,121,0.0,0.0,91,0.00,,---,0.00,VWS V14.01,2013-05-29 11:45:00,
2013-05-29 05:50:00,41.4,39.8,29.55,ESE,121,0.0,0.0,94,0.00,,---,0.00,VWS V14.01,2013-05-29 11:50:00,
2013-05-29 05:55:00,41.4,39.8,29.55,ESE,121,0.0,0.0,94,0.00,,---,0.00,VWS V14.01,2013-05-29 11:55:00,
2013-05-29 06:00:00,41.2,39.6,29.55,ESE,121,0.0,0.0,94,0.00,,---,0.00,VWS V14.01,2013-05-29 12:00:00,
2013-05-29 06:05:00,41.0,39.4,29.55,ESE,121,0.0,0.0,94,0.00,,---,0.00,VWS V14.01,2013-05-29 12:05:00,
2013-05-29 06:10:00,41.0,39.4,29.55,ESE,121,0.0,0.0,94,0.00,,---,0.00,VWS V14.01,2013-05-29 12:10:00,
2013-05-29 06:15:00,40.8,39.2,29.55,ESE,121,0.0,0.0,94,0.00,,---,0.00,VWS V14.01,2013-05-29 12:15:00,
2013-05-29 06:20:00,40.6,39.0,29.55,ESE,121,0.0,0.0,94,0.00,,---,0.00,VWS V14.01,2013-05-29 12:20:00,
2013-05-29 06:25:00,40.6,39.0,29.55,ESE,121,0.0,0.0,94,0.00,,---,0.00,VWS V14.01,2013-05-29 12:25:00,
2013-05-29 06:30:00,40.5,38.9,29.55,ESE,121,0.0,0.0,94,0.00,,---,0.00,VWS V14.01,2013-05-29 12:30:00,
2013-05-29 06:35:00,40.5,38.9,29.55,ESE,120,0.0,0.0,94,0.00,,---,0.00,VWS V14.01,2013-05-29 12:35:00,
2013-05-29 06:40:00,40.3,38.4,29.55,ESE,120,0.0,0.0,93,0.00,,---,0.00,VWS V14.01,2013-05-29 12:40:00,
2013-05-29 06:45:00,40.3,38.4,29.55,ESE,120,0.0,0.0,93,0.00,,---,0.00,VWS V14.01,2013-05-29 12:45:00,
2013-05-29 06:50:00,40.3,38.4,29.55,ESE,120,0.0,0.0,93,0.00,,---,0.00,VWS V14.01,2013-05-29 12:50:00,
2013-05-29 06:55:00,40.1,38.2,29.55,ESE,120,0.0,0.0,93,0.00,,---,0.00,VWS V14.01,2013-05-29 12:55:00,
2013-05-29 07:00:00,40.1,38.2,29.55,ESE,120,0.0,0.0,93,0.00,,---,0.00,VWS V14.01,2013-05-29 13:00:00,
2013-05-29 07:05:00,40.3,38.4,29.55,ESE,120,0.0,0.0,93,0.00,,---,0.00,VWS V14.01,2013-05-29 13:05:00,
2013-05-29 07:10:00,40.5,38.9,29.55,ESE,120,0.0,0.0,94,0.00,,---,0.00,VWS V14.01,2013-05-29 13:10:00,
2013-05-29 07:15:00,40.6,39.0,29.55,ESE,120,0.0,0.0,94,0.00,,---,0.00,VWS V14.01,2013-05-29 13:15:00,
2013-05-29 07:20:00,41.0,39.4,29.55,ESE,120,0.0,0.0,94,0.00,,---,0.00,VWS V14.01,2013-05-29 13:20:00,
2013-05-29 07:25:00,41.5,40.0,29.55,ESE,120,0.0,0.0,94,0.00,,---,0.00,VWS V14.01,2013-05-29 13:25:00,
2013-05-29 07:30:00,42.3,40.9,29.55,ESE,120,0.0,0.0,95,0.00,,---,0.00,VWS V14.01,2013-05-29 13:30:00,
2013-05-29 07:35:00,43.3,42.0,29.55,ESE,120,0.0,0.0,95,0.00,,---,0.00,VWS V14.01,2013-05-29 13:35:00,
2013-05-29 07:40:00,44.2,42.9,29.52,ESE,120,0.0,0.0,95,0.00,,---,0.00,VWS V14.01,2013-05-29 13:40:00,
2013-05-29 07:45:00,45.1,43.8,29.52,ESE,120,0.0,0.0,95,0.00,,---,0.00,VWS V14.01,2013-05-29 13:45:00,
2013-05-29 07:50:00,45.5,44.2,29.52,ESE,120,0.0,0.0,95,0.00,,---,0.00,VWS V14.01,2013-05-29 13:50:00,
2013-05-29 07:55:00,46.0,44.4,29.55,NE,46,0.0,0.0,94,0.00,,---,0.00,VWS V14.01,2013-05-29 13:55:00,
2013-05-29 08:00:00,46.8,44.3,29.55,ENE,58,0.0,0.0,91,0.00,,---,0.00,VWS V14.01,2013-05-29 14:00:00,
2013-05-29 08:05:00,47.7,44.6,29.55,NE,52,0.0,4.0,89,0.00,,---,0.00,VWS V14.01,2013-05-29 14:05:00,
2013-05-29 08:10:00,47.5,43.8,29.55,NNE,23,2.7,3.1,87,0.00,,---,0.00,VWS V14.01,2013-05-29 14:10:00,
2013-05-29 08:15:00,47.8,43.9,29.55,NW,317,3.6,3.6,86,0.00,,---,0.00,VWS V14.01,2013-05-29 14:15:00,
2013-05-29 08:20:00,47.3,42.1,29.55,NW,319,0.0,2.7,82,0.00,,---,0.00,VWS V14.01,2013-05-29 14:20:00,
2013-05-29 08:25:00,47.7,41.8,29.55,NE,42,0.0,0.0,80,0.00,,---,0.00,VWS V14.01,2013-05-29 14:25:00,
2013-05-29 08:30:00,47.5,40.6,29.55,NW,326,4.0,4.0,77,0.00,,---,0.00,VWS V14.01,2013-05-29 14:30:00,
2013-05-29 08:35:00,47.3,39.8,29.55,NE,45,4.0,4.0,75,0.00,,---,0.00,VWS V14.01,2013-05-29 14:35:00,
2013-05-29 08:40:00,47.7,39.8,29.55,NE,44,3.6,4.0,74,0.00,,---,0.00,VWS V14.01,2013-05-29 14:40:00,
2013-05-29 08:45:00,47.8,40.0,29.55,NE,34,0.0,2.7,74,0.00,,---,0.00,VWS V14.01,2013-05-29 14:45:00,
2013-05-29 08:50:00,47.8,39.6,29.55,NE,34,0.0,0.0,73,0.00,,---,0.00,VWS V14.01,2013-05-29 14:50:00,
2013-05-29 08:55:00,47.3,38.4,29.55,North,353,0.0,0.0,71,0.00,,---,0.00,VWS V14.01,2013-05-29 14:55:00,
2013-05-29 09:00:00,47.7,39.1,29.55,North,353,0.0,0.0,72,0.00,,---,0.00,VWS V14.01,2013-05-29 15:00:00,
2013-05-29 09:05:00,48.0,39.1,29.55,North,1,0.0,0.0,71,0.00,,---,0.00,VWS V14.01,2013-05-29 15:05:00,
2013-05-29 09:10:00,48.4,39.1,29.55,ENE,65,2.7,4.5,70,0.00,,---,0.00,VWS V14.01,2013-05-29 15:10:00,
2013-05-29 09:15:00,49.1,39.0,29.55,ENE,62,0.0,0.0,68,0.00,,---,0.00,VWS V14.01,2013-05-29 15:15:00,
2013-05-29 09:20:00,49.6,38.4,29.55,ENE,59,4.0,5.8,65,0.00,,---,0.00,VWS V14.01,2013-05-29 15:20:00,
2013-05-29 09:25:00,50.0,38.3,29.55,ENE,57,0.0,0.0,64,0.00,,---,0.00,VWS V14.01,2013-05-29 15:25:00,
2013-05-29 09:30:00,50.2,37.7,29.55,NE,48,2.7,3.6,62,0.00,,---,0.00,VWS V14.01,2013-05-29 15:30:00,
2013-05-29 09:35:00,50.2,37.3,29.55,NE,47,0.0,0.0,61,0.00,,---,0.00,VWS V14.01,2013-05-29 15:35:00,
2013-05-29 09:40:00,49.6,36.8,29.55,NNE,24,0.0,0.0,61,0.00,,---,0.00,VWS V14.01,2013-05-29 15:40:00,
2013-05-29 09:45:00,49.5,37.0,29.55,NNE,24,0.0,0.0,62,0.00,,---,0.00,VWS V14.01,2013-05-29 15:45:00,
2013-05-29 09:50:00,49.1,36.2,29.55,NNE,24,0.0,0.0,61,0.00,,---,0.00,VWS V14.01,2013-05-29 15:50:00,
2013-05-29 09:55:00,49.1,37.5,29.55,NE,46,0.0,0.0,64,0.00,,---,0.00,VWS V14.01,2013-05-29 15:55:00,
2013-05-29 10:00:00,49.1,37.5,29.55,ENE,71,0.0,0.0,64,0.00,,---,0.00,VWS V14.01,2013-05-29 16:00:00,
2013-05-29 10:05:00,49.1,39.0,29.55,ENE,59,0.0,0.0,68,0.00,,---,0.00,VWS V14.01,2013-05-29 16:05:00,
2013-05-29 10:10:00,49.3,39.2,29.52,NE,55,2.7,2.7,68,0.00,,---,0.00,VWS V14.01,2013-05-29 16:10:00,
2013-05-29 10:15:00,49.1,39.4,29.52,NE,55,0.0,0.0,69,0.00,,---,0.00,VWS V14.01,2013-05-29 16:15:00,
2013-05-29 10:20:00,48.9,39.2,29.52,NE,55,0.0,0.0,69,0.00,,---,0.00,VWS V14.01,2013-05-29 16:20:00,
2013-05-29 10:25:00,48.6,39.2,29.52,SSE,167,3.1,3.1,70,0.00,,---,0.00,VWS V14.01,2013-05-29 16:25:00,
2013-05-29 10:30:00,48.7,40.1,29.52,SSE,167,0.0,0.0,72,0.00,,---,0.00,VWS V14.01,2013-05-29 16:30:00,
2013-05-29 10:35:00,48.7,40.1,29.52,SSE,167,0.0,0.0,72,0.00,,---,0.00,VWS V14.01,2013-05-29 16:35:00,
2013-05-29 10:40:00,48.6,38.1,29.52,SE,131,5.4,5.4,67,0.00,,---,0.00,VWS V14.01,2013-05-29 16:40:00,
2013-05-29 10:45:00,48.2,38.2,29.52,SSE,153,6.3,6.3,68,0.00,,---,0.00,VWS V14.01,2013-05-29 16:45:00,
2013-05-29 10:50:00,48.4,36.8,29.52,SSE,162,3.6,4.0,64,0.00,,---,0.00,VWS V14.01,2013-05-29 16:50:00,
2013-05-29 10:55:00,48.7,37.9,29.52,South,173,3.6,3.6,66,0.00,,---,0.00,VWS V14.01,2013-05-29 16:55:00,
2013-05-29 11:00:00,49.3,39.5,29.52,WSW,238,3.6,4.0,69,0.00,,---,0.00,VWS V14.01,2013-05-29 17:00:00,
2013-05-29 11:05:00,50.2,39.7,29.52,SW,216,0.0,0.0,67,0.00,,---,0.00,VWS V14.01,2013-05-29 17:05:00,
2013-05-29 11:10:00,50.9,38.4,29.52,SW,222,4.0,4.0,62,0.00,,---,0.00,VWS V14.01,2013-05-29 17:10:00,
2013-05-29 11:15:00,51.1,36.0,29.52,SW,218,4.0,4.0,56,0.00,,---,0.00,VWS V14.01,2013-05-29 17:15:00,
2013-05-29 11:20:00,51.3,36.1,29.52,SW,226,2.7,5.4,56,0.00,,---,0.00,VWS V14.01,2013-05-29 17:20:00,
2013-05-29 11:25:00,51.6,36.9,29.52,SW,223,4.9,6.3,57,0.00,,---,0.00,VWS V14.01,2013-05-29 17:25:00,
2013-05-29 11:30:00,52.7,36.1,29.52,West,280,3.1,3.1,53,0.00,,---,0.00,VWS V14.01,2013-05-29 17:30:00,
2013-05-29 11:35:00,53.4,35.8,29.52,SSW,199,3.1,3.1,51,0.00,,---,0.00,VWS V14.01,2013-05-29 17:35:00,
2013-05-29 11:40:00,54.0,34.7,29.49,NW,315,2.7,3.1,48,0.00,,---,0.00,VWS V14.01,2013-05-29 17:40:00,
2013-05-29 11:45:00,53.8,31.8,29.49,NW,318,4.0,4.9,43,0.00,,---,0.00,VWS V14.01,2013-05-29 17:45:00,
2013-05-29 11:50:00,53.2,31.9,29.49,NW,318,3.1,4.9,44,0.00,,---,0.00,VWS V14.01,2013-05-29 17:50:00,
2013-05-29 11:55:00,53.6,31.7,29.52,NW,324,2.7,4.0,43,0.00,,---,0.00,VWS V14.01,2013-05-29 17:55:00,
2013-05-29 12:00:00,54.7,34.9,29.52,NNE,21,3.6,4.0,47,0.00,,---,0.00,VWS V14.01,2013-05-29 18:00:00,
2013-05-29 12:05:00,56.5,33.1,29.52,ENE,75,3.6,5.8,41,0.00,,---,0.00,VWS V14.01,2013-05-29 18:05:00,
2013-05-29 12:10:00,58.3,34.1,29.52,NE,47,3.6,3.6,40,0.00,,---,0.00,VWS V14.01,2013-05-29 18:10:00,
2013-05-29 12:15:00,59.2,32.3,29.52,West,270,4.0,4.0,36,0.00,,---,0.00,VWS V14.01,2013-05-29 18:15:00,
2013-05-29 12:20:00,59.2,34.3,29.52,NE,49,6.3,6.3,39,0.00,,---,0.00,VWS V14.01,2013-05-29 18:20:00,
2013-05-29 12:25:00,60.4,35.4,29.49,ESE,119,3.1,3.1,39,0.00,,---,0.00,VWS V14.01,2013-05-29 18:25:00,
2013-05-29 12:30:00,61.2,34.0,29.49,East,83,4.0,4.0,36,0.00,,---,0.00,VWS V14.01,2013-05-29 18:30:00,
2013-05-29 12:35:00,61.0,34.5,29.49,NE,50,7.6,7.6,37,0.00,,---,0.00,VWS V14.01,2013-05-29 18:35:00,
2013-05-29 12:40:00,60.8,35.1,29.49,East,79,3.6,5.8,38,0.00,,---,0.00,VWS V14.01,2013-05-29 18:40:00,
2013-05-29 12:45:00,61.0,34.5,29.49,ESE,112,3.6,4.5,37,0.00,,---,0.00,VWS V14.01,2013-05-29 18:45:00,
2013-05-29 12:50:00,61.3,34.2,29.49,ENE,66,8.3,8.3,36,0.00,,---,0.00,VWS V14.01,2013-05-29 18:50:00,
2013-05-29 12:55:00,60.8,33.0,29.49,SSE,149,2.7,3.1,35,0.00,,---,0.00,VWS V14.01,2013-05-29 18:55:00,
2013-05-29 13:00:00,61.3,34.2,29.49,ESE,110,4.0,4.0,36,0.00,,---,0.00,VWS V14.01,2013-05-29 19:00:00,
2013-05-29 13:05:00,60.8,33.0,29.49,SE,142,0.0,2.7,35,0.00,,---,0.00,VWS V14.01,2013-05-29 19:05:00,
2013-05-29 13:10:00,60.1,32.4,29.49,NNW,335,0.0,2.2,35,0.00,,---,0.00,VWS V14.01,2013-05-29 19:10:00,
2013-05-29 13:15:00,59.4,31.7,29.49,NW,312,0.0,0.0,35,0.00,,---,0.00,VWS V14.01,2013-05-29 19:15:00,
2013-05-29 13:20:00,59.2,32.3,29.49,NNW,330,3.6,3.6,36,0.00,,---,0.00,VWS V14.01,2013-05-29 19:20:00,
2013-05-29 13:25:00,59.9,33.6,29.49,NE,54,3.6,5.8,37,0.00,,---,0.00,VWS V14.01,2013-05-29 19:25:00,
2013-05-29 13:30:00,62.1,35.5,29.49,WNW,285,4.5,4.5,37,0.00,,---,0.00,VWS V14.01,2013-05-29 19:30:00,
2013-05-29 13:35:00,61.9,34.7,29.49,NE,44,3.1,5.8,36,0.00,,---,0.00,VWS V14.01,2013-05-29 19:35:00,
2013-05-29 13:40:00,62.1,34.8,29.49,NE,40,4.0,6.3,36,0.00,,---,0.00,VWS V14.01,2013-05-29 19:40:00,
2013-05-29 13:45:00,60.6,32.1,29.49,West,274,4.5,4.5,34,0.00,,---,0.00,VWS V14.01,2013-05-29 19:45:00,
2013-05-29 13:50:00,59.4,31.7,29.49,SW,214,4.9,4.9,35,0.00,,---,0.00,VWS V14.01,2013-05-29 19:50:00,
2013-05-29 13:55:00,59.5,31.9,29.49,West,263,2.7,2.7,35,0.00,,---,0.00,VWS V14.01,2013-05-29 19:55:00,
2013-05-29 14:00:00,60.1,32.4,29.49,NNE,25,4.0,4.0,35,0.00,,---,0.00,VWS V14.01,2013-05-29 20:00:00,
2013-05-29 14:05:00,62.4,34.4,29.49,NW,322,6.3,6.3,35,0.00,,---,0.00,VWS V14.01,2013-05-29 20:05:00,
2013-05-29 14:10:00,61.7,33.1,29.49,NW,310,3.6,3.6,34,0.00,,---,0.00,VWS V14.01,2013-05-29 20:10:00,
2013-05-29 14:15:00,62.1,34.8,29.49,WNW,284,3.6,3.6,36,0.00,,---,0.00,VWS V14.01,2013-05-29 20:15:00,
2013-05-29 14:20:00,62.2,33.5,29.49,WNW,300,4.9,4.9,34,0.00,,---,0.00,VWS V14.01,2013-05-29 20:20:00,
2013-05-29 14:25:00,61.5,32.9,29.46,WSW,240,4.0,4.0,34,0.00,,---,0.00,VWS V14.01,2013-05-29 20:25:00,
2013-05-29 14:30:00,60.8,32.3,29.46,NW,324,5.8,6.3,34,0.00,,---,0.00,VWS V14.01,2013-05-29 20:30:00,
2013-05-29 14:35:00,60.4,32.0,29.46,WNW,300,8.3,8.3,34,0.00,,---,0.00,VWS V14.01,2013-05-29 20:35:00,
2013-05-29 14:40:00,59.5,31.2,29.49,WNW,293,4.9,5.4,34,0.00,,---,0.00,VWS V14.01,2013-05-29 20:40:00,
2013-05-29 14:45:00,59.2,31.6,29.49,West,261,5.8,5.8,35,0.00,,---,0.00,VWS V14.01,2013-05-29 20:45:00,
2013-05-29 14:50:00,59.2,31.6,29.49,West,274,4.0,4.0,35,0.00,,---,0.00,VWS V14.01,2013-05-29 20:50:00,
2013-05-29 14:55:00,59.2,31.6,29.46,NW,311,5.4,6.7,35,0.00,,---,0.00,VWS V14.01,2013-05-29 20:55:00,
2013-05-29 15:00:00,59.0,31.4,29.46,NW,311,0.0,0.0,35,0.00,,---,0.00,VWS V14.01,2013-05-29 21:00:00,
2013-05-29 15:05:00,59.0,30.7,29.46,West,263,2.7,2.7,34,0.00,,---,0.00,VWS V14.01,2013-05-29 21:05:00,
2013-05-29 15:10:00,59.4,31.0,29.46,WSW,243,3.1,3.1,34,0.00,,---,0.00,VWS V14.01,2013-05-29 21:10:00,
2013-05-29 15:15:00,60.1,32.4,29.46,WSW,245,3.1,3.6,35,0.00,,---,0.00,VWS V14.01,2013-05-29 21:15:00,
2013-05-29 15:19:00,62.1,34.1,29.46,North,1,4.0,4.0,35,0.00,,---,0.00,VWS V14.01,2013-05-29 21:19:00,
2013-05-29 15:25:00,63.1,34.3,29.46,SE,130,0.0,0.0,34,0.00,,---,0.00,VWS V14.01,2013-05-29 21:25:00,
2013-05-29 15:30:00,64.8,35.0,29.46,North,7,0.0,0.0,33,0.00,,---,0.00,VWS V14.01,2013-05-29 21:30:00,
2013-05-29 15:35:00,65.1,33.8,29.46,SW,233,3.1,5.4,31,0.00,,---,0.00,VWS V14.01,2013-05-29 21:35:00,
2013-05-29 15:40:00,63.5,33.1,29.46,West,273,8.1,8.1,32,0.00,,---,0.00,VWS V14.01,2013-05-29 21:40:00,
2013-05-29 15:45:00,61.9,31.7,29.46,NW,304,3.6,3.6,32,0.00,,---,0.00,VWS V14.01,2013-05-29 21:45:00,
2013-05-29 15:50:00,61.5,32.9,29.46,SW,221,8.7,8.7,34,0.00,,---,0.00,VWS V14.01,2013-05-29 21:50:00,
2013-05-29 15:54:00,61.0,32.4,29.46,West,262,8.1,8.7,34,0.00,,---,0.00,VWS V14.01,2013-05-29 21:54:00,
2013-05-29 15:59:00,59.9,31.5,29.46,WSW,251,8.7,8.7,34,0.00,,---,0.00,VWS V14.01,2013-05-29 21:59:00,
2013-05-29 16:04:00,59.4,31.0,29.46,WNW,299,6.3,8.3,34,0.00,,---,0.00,VWS V14.01,2013-05-29 22:04:00,
2013-05-29 16:09:00,58.8,31.2,29.46,West,277,5.8,5.8,35,0.00,,---,0.00,VWS V14.01,2013-05-29 22:09:00,
2013-05-29 16:14:00,59.2,31.6,29.46,WSW,251,4.9,6.3,35,0.00,,---,0.00,VWS V14.01,2013-05-29 22:14:00,
2013-05-29 16:19:00,58.5,32.3,29.46,South,183,8.7,8.7,37,0.00,,---,0.00,VWS V14.01,2013-05-29 22:19:00,
2013-05-29 16:24:00,57.7,31.7,29.46,SW,226,11.0,11.0,37,0.00,,---,0.00,VWS V14.01,2013-05-29 22:24:00,
2013-05-29 16:29:00,57.2,30.5,29.46,NW,314,5.4,5.4,36,0.00,,---,0.00,VWS V14.01,2013-05-29 22:29:00,
2013-05-29 16:34:00,57.9,31.8,29.46,NW,313,0.0,0.0,37,0.00,,---,0.00,VWS V14.01,2013-05-29 22:34:00,
2013-05-29 16:39:00,59.4,32.4,29.46,SW,224,0.0,0.0,36,0.00,,---,0.00,VWS V14.01,2013-05-29 22:39:00,
2013-05-29 16:44:00,61.2,34.7,29.46,NE,46,0.0,0.0,37,0.00,,---,0.00,VWS V14.01,2013-05-29 22:44:00,
2013-05-29 16:49:00,62.2,33.5,29.46,ENE,64,4.0,4.5,34,0.00,,---,0.00,VWS V14.01,2013-05-29 22:49:00,
2013-05-29 16:54:00,61.3,32.8,29.46,ESE,115,5.8,5.8,34,0.00,,---,0.00,VWS V14.01,2013-05-29 22:54:00,
2013-05-29 16:59:00,60.3,35.2,29.46,ENE,71,10.1,11.0,39,0.00,,---,0.00,VWS V14.01,2013-05-29 22:59:00,
2013-05-29 17:04:00,59.4,36.9,29.46,ENE,77,5.4,8.7,43,0.00,,---,0.00,VWS V14.01,2013-05-29 23:04:00,
2013-05-29 17:09:00,58.8,36.4,29.46,NNE,30,6.3,6.3,43,0.00,,---,0.00,VWS V14.01,2013-05-29 23:09:00,
2013-05-29 17:14:00,58.8,37.5,29.46,East,79,5.8,5.8,45,0.00,,---,0.00,VWS V14.01,2013-05-29 23:14:00,
2013-05-29 17:19:00,59.7,37.8,29.46,ENE,60,7.6,7.6,44,0.00,,---,0.00,VWS V14.01,2013-05-29 23:19:00,
2013-05-29 17:24:00,61.0,37.8,29.46,East,79,12.3,12.3,42,0.00,,---,0.00,VWS V14.01,2013-05-29 23:24:00,
2013-05-29 17:29:00,61.9,36.0,29.46,NE,52,8.7,8.7,38,0.00,,---,0.00,VWS V14.01,2013-05-29 23:29:00,
2013-05-29 17:34:00,61.7,34.5,29.46,NE,47,7.2,7.2,36,0.00,,---,0.00,VWS V14.01,2013-05-29 23:34:00,
2013-05-29 17:39:00,60.6,33.5,29.46,NE,41,3.6,3.6,36,0.00,,---,0.00,VWS V14.01,2013-05-29 23:39:00,
2013-05-29 17:44:00,60.1,33.8,29.46,NE,51,2.7,8.7,37,0.00,,---,0.00,VWS V14.01,2013-05-29 23:44:00,
2013-05-29 17:49:00,59.2,33.0,29.46,ENE,77,0.0,0.0,37,0.00,,---,0.00,VWS V14.01,2013-05-29 23:49:00,
2013-05-29 17:54:00,59.4,34.4,29.46,NNE,30,3.6,4.0,39,0.00,,---,0.00,VWS V14.01,2013-05-29 23:54:00,
2013-05-29 17:59:00,59.9,35.5,29.46,North,1,5.8,5.8,40,0.00,,---,0.00,VWS V14.01,2013-05-29 23:59:00,
2013-05-29 18:04:00,59.9,34.2,29.46,NE,46,4.9,4.9,38,0.00,,---,0.00,VWS V14.01,2013-05-30 00:04:00,
2013-05-29 18:09:00,59.4,33.1,29.46,NNE,23,0.0,0.0,37,0.00,,---,0.00,VWS V14.01,2013-05-30 00:09:00,
2013-05-29 18:14:00,58.8,33.3,29.46,NE,43,3.6,3.6,38,0.00,,---,0.00,VWS V14.01,2013-05-30 00:14:00,
2013-05-29 18:19:00,58.6,33.8,29.46,ENE,60,0.0,0.0,39,0.00,,---,0.00,VWS V14.01,2013-05-30 00:19:00,
2013-05-29 18:24:00,58.6,33.8,29.49,NNE,18,2.2,2.2,39,0.00,,---,0.00,VWS V14.01,2013-05-30 00:24:00,
2013-05-29 18:29:00,58.5,33.6,29.49,NE,51,3.6,3.6,39,0.00,,---,0.00,VWS V14.01,2013-05-30 00:29:00,
2013-05-29 18:34:00,58.6,34.4,29.49,NE,51,3.1,5.8,40,0.00,,---,0.00,VWS V14.01,2013-05-30 00:34:00,
2013-05-29 18:39:00,58.5,34.9,29.49,NNE,33,5.4,6.3,41,0.00,,---,0.00,VWS V14.01,2013-05-30 00:39:00,
2013-05-29 18:44:00,58.1,35.2,29.49,NE,55,5.4,5.4,42,0.00,,---,0.00,VWS V14.01,2013-05-30 00:44:00,
2013-05-29 18:49:00,57.6,34.7,29.49,NNE,31,5.4,8.3,42,0.00,,---,0.00,VWS V14.01,2013-05-30 00:49:00,
2013-05-29 18:54:00,57.2,34.9,29.49,NE,50,3.1,5.4,43,0.00,,---,0.00,VWS V14.01,2013-05-30 00:54:00,
2013-05-29 18:59:00,57.0,34.8,29.49,NE,56,2.7,3.1,43,0.00,,---,0.00,VWS V14.01,2013-05-30 00:59:00,
2013-05-29 19:04:00,56.8,35.2,29.49,NE,53,3.6,5.4,44,0.00,,---,0.00,VWS V14.01,2013-05-30 01:04:00,
2013-05-29 19:09:00,56.7,35.0,29.49,NE,48,4.9,4.9,44,0.00,,---,0.00,VWS V14.01,2013-05-30 01:09:00,
2013-05-29 19:14:00,56.3,34.1,29.49,North,9,0.0,0.0,43,0.00,,---,0.00,VWS V14.01,2013-05-30 01:14:00,
2013-05-29 19:19:00,55.9,33.8,29.49,WNW,293,2.7,3.6,43,0.00,,---,0.00,VWS V14.01,2013-05-30 01:19:00,
2013-05-29 19:24:00,55.6,34.6,29.49,West,260,8.1,8.1,45,0.00,,---,0.00,VWS V14.01,2013-05-30 01:24:00,
2013-05-29 19:29:00,53.2,36.6,29.49,SW,228,6.3,7.6,53,0.00,,---,0.00,VWS V14.01,2013-05-30 01:29:00,
2013-05-29 19:34:00,51.8,36.6,29.49,NW,317,4.9,4.9,56,0.00,,---,0.00,VWS V14.01,2013-05-30 01:34:00,
2013-05-29 19:39:00,50.9,37.5,29.49,North,353,2.7,5.4,60,0.00,,---,0.00,VWS V14.01,2013-05-30 01:39:00,
2013-05-29 19:44:00,50.2,38.9,29.49,NNE,22,6.3,6.3,65,0.00,,---,0.00,VWS V14.01,2013-05-30 01:44:00,
2013-05-29 19:49:00,50.2,38.9,29.49,NE,54,5.4,5.8,65,0.00,,---,0.00,VWS V14.01,2013-05-30 01:49:00,
2013-05-29 19:54:00,50.2,39.3,29.49,ENE,57,5.4,5.4,66,0.00,,---,0.00,VWS V14.01,2013-05-30 01:54:00,
2013-05-29 19:59:00,50.0,39.5,29.49,WNW,289,3.1,5.8,67,0.00,,---,0.00,VWS V14.01,2013-05-30 01:59:00,
2013-05-29 20:04:00,49.8,40.1,29.49,NW,311,2.7,3.6,69,0.00,,---,0.00,VWS V14.01,2013-05-30 02:04:00,
2013-05-29 20:09:00,49.8,40.1,29.49,West,265,4.0,4.0,69,0.00,,---,0.00,VWS V14.01,2013-05-30 02:09:00,
2013-05-29 20:14:00,50.0,39.9,29.49,West,266,2.7,4.9,68,0.00,,---,0.00,VWS V14.01,2013-05-30 02:14:00,
2013-05-29 20:19:00,50.0,39.9,29.49,West,265,2.7,2.7,68,0.00,,---,0.00,VWS V14.01,2013-05-30 02:19:00,
2013-05-29 20:24:00,50.0,40.2,29.52,WSW,256,3.6,3.6,69,0.00,,---,0.00,VWS V14.01,2013-05-30 02:24:00,
2013-05-29 20:29:00,50.2,40.0,29.52,SW,234,0.0,0.0,68,0.00,,---,0.00,VWS V14.01,2013-05-30 02:29:00,
2013-05-29 20:34:00,50.2,39.7,29.52,SW,235,5.8,5.8,67,0.00,,---,0.00,VWS V14.01,2013-05-30 02:34:00,
2013-05-29 20:39:00,50.2,39.7,29.52,SSW,196,2.7,2.7,67,0.00,,---,0.00,VWS V14.01,2013-05-30 02:39:00,
2013-05-29 20:44:00,50.4,39.8,29.52,SW,218,3.1,5.8,67,0.00,,---,0.00,VWS V14.01,2013-05-30 02:44:00,
2013-05-29 20:49:00,50.2,39.7,29.52,SW,228,3.6,6.3,67,0.00,,---,0.00,VWS V14.01,2013-05-30 02:49:00,
2013-05-29 20:54:00,50.4,39.1,29.52,West,267,4.0,4.0,65,0.00,,---,0.00,VWS V14.01,2013-05-30 02:54:00,
2013-05-29 20:59:00,50.4,40.6,29.52,WSW,244,5.8,10.1,69,0.00,,---,0.00,VWS V14.01,2013-05-30 02:59:00,
2013-05-29 21:04:00,49.5,39.3,29.52,NW,316,10.1,10.1,68,0.00,,---,0.00,VWS V14.01,2013-05-30 03:04:00,
2013-05-29 21:09:00,48.0,38.7,29.52,NW,312,7.6,10.5,70,0.00,,---,0.00,VWS V14.01,2013-05-30 03:09:00,
2013-05-29 21:14:00,46.9,38.4,29.52,West,275,15.4,15.4,72,0.00,,---,0.00,VWS V14.01,2013-05-30 03:14:00,
2013-05-29 21:19:00,46.2,38.8,29.52,WSW,251,6.3,14.1,75,0.00,,---,0.00,VWS V14.01,2013-05-30 03:19:00,
2013-05-29 21:24:00,46.0,38.6,29.55,NW,310,7.6,8.1,75,0.00,,---,0.00,VWS V14.01,2013-05-30 03:24:00,
2013-05-29 21:29:00,45.5,38.4,29.55,NW,314,10.1,11.9,76,0.00,,---,0.00,VWS V14.01,2013-05-30 03:29:00,
2013-05-29 21:34:00,45.3,38.2,29.55,NW,314,12.3,12.3,76,0.00,,---,0.00,VWS V14.01,2013-05-30 03:34:00,
2013-05-29 21:39:00,45.3,38.2,29.55,WNW,300,11.4,13.2,76,0.00,,---,0.00,VWS V14.01,2013-05-30 03:39:00,
2013-05-29 21:44:00,45.3,38.2,29.55,West,274,7.6,10.1,76,0.00,,---,0.00,VWS V14.01,2013-05-30 03:44:00,
2013-05-29 21:49:00,45.1,38.7,29.55,NNW,334,10.5,10.5,78,0.00,,---,0.00,VWS V14.01,2013-05-30 03:49:00,
2013-05-29 21:54:00,45.0,39.2,29.55,WSW,252,7.6,10.5,80,0.00,,---,0.00,VWS V14.01,2013-05-30 03:54:00,
2013-05-29 21:59:00,45.0,39.5,29.55,West,271,11.4,11.4,81,0.00,,---,0.00,VWS V14.01,2013-05-30 03:59:00,
2013-05-29 22:01:00,45.0,39.5,29.55,WNW,289,13.2,13.2,81,0.00,,---,0.00,VWS V14.01,2013-05-30 04:01:00,
2013-05-29 22:06:00,45.0,38.8,29.55,West,269,8.3,8.3,79,0.00,,---,0.00,VWS V14.01,2013-05-30 04:06:00,
2013-05-29 22:11:00,45.0,38.8,29.55,West,264,10.1,10.1,79,0.00,,---,0.00,VWS V14.01,2013-05-30 04:11:00,
2013-05-29 22:16:00,44.8,38.7,29.55,West,263,8.1,8.1,79,0.00,,---,0.00,VWS V14.01,2013-05-30 04:16:00,
2013-05-29 22:21:00,44.6,38.2,29.55,NW,306,8.1,8.1,78,0.00,,---,0.00,VWS V14.01,2013-05-30 04:21:00,
2013-05-29 22:26:00,44.6,37.8,29.55,West,262,10.5,10.5,77,0.00,,---,0.00,VWS V14.01,2013-05-30 04:26:00,
2013-05-29 22:31:00,44.2,37.5,29.55,SSW,209,10.1,11.0,77,0.00,,---,0.00,VWS V14.01,2013-05-30 04:31:00,
2013-05-29 22:36:00,44.2,37.2,29.55,WSW,240,9.2,9.2,76,0.00,,---,0.00,VWS V14.01,2013-05-30 04:36:00,
2013-05-29 22:41:00,43.9,36.8,29.55,WSW,239,7.6,15.0,76,0.00,,---,0.00,VWS V14.01,2013-05-30 04:41:00,
2013-05-29 22:46:00,43.7,36.6,29.55,WSW,246,11.0,11.0,76,0.00,,---,0.00,VWS V14.01,2013-05-30 04:46:00,
2013-05-29 22:51:00,43.7,36.6,29.55,WSW,252,12.3,12.3,76,0.00,,---,0.00,VWS V14.01,2013-05-30 04:51:00,
2013-05-29 22:56:00,43.7,37.0,29.55,WSW,250,14.5,14.5,77,0.00,,---,0.00,VWS V14.01,2013-05-30 04:56:00,
2013-05-29 23:01:00,43.7,37.3,29.55,WSW,254,11.0,11.0,78,0.00,,---,0.00,VWS V14.01,2013-05-30 05:01:00,
2013-05-29 23:06:00,43.7,37.6,29.58,WSW,252,11.0,11.0,79,0.00,,---,0.00,VWS V14.01,2013-05-30 05:06:00,
2013-05-29 23:11:00,43.9,38.1,29.58,WNW,288,10.5,10.5,80,0.00,,---,0.00,VWS V14.01,2013-05-30 05:11:00,
2013-05-29 23:16:00,44.1,38.3,29.58,West,262,4.9,5.4,80,0.00,,---,0.00,VWS V14.01,2013-05-30 05:16:00,
2013-05-29 23:21:00,44.2,38.5,29.58,West,263,6.3,8.3,80,0.00,,---,0.00,VWS V14.01,2013-05-30 05:21:00,
2013-05-29 23:26:00,44.2,38.2,29.58,WNW,286,4.0,6.3,79,0.00,,---,0.00,VWS V14.01,2013-05-30 05:26:00,
2013-05-29 23:31:00,44.2,38.2,29.58,West,265,7.6,7.6,79,0.00,,---,0.00,VWS V14.01,2013-05-30 05:31:00,
2013-05-29 23:36:00,44.2,38.2,29.58,WNW,298,6.3,6.3,79,0.00,,---,0.00,VWS V14.01,2013-05-30 05:36:00,
2013-05-29 23:41:00,44.4,38.0,29.58,NW,312,8.1,8.1,78,0.00,,---,0.00,VWS V14.01,2013-05-30 05:41:00,
2013-05-29 23:46:00,44.6,37.8,29.58,West,277,8.7,8.7,77,0.00,,---,0.00,VWS V14.01,2013-05-30 05:46:00,
2013-05-29 23:51:00,44.6,37.2,29.58,WNW,292,8.3,8.3,75,0.00,,---,0.00,VWS V14.01,2013-05-30 05:51:00,
2013-05-29 23:56:00,44.6,36.8,29.58,WNW,291,8.1,10.5,74,0.00,,---,0.00,VWS V14.01,2013-05-30 05:56:00,